Skip Page Navigation
NASA JPL Caltech
NASA Logo - Jet Propulsion Laboratory + View the NASA Portal
+ Center for Near-Earth Object Studies
JPL Home Earth Solar System Stars & Galaxies Technology
JPL Solar System Dynamics
BODIES ORBITS EPHEMERIDES TOOLS PHYSICAL DATA DISCOVERY FAQ SITE MAP
IMPORTANT: The SSD Announcement email list is now available. Major changes are coming in the near future, including possible hostname and/or URL changes. To be notified of such changes, subscribe to this email list.

Please visit this page for more details.


JPL Small-Body Database Browser
Search: [ help ]  
11338 Schiele (1996 TL9)
Classification: Main-belt Asteroid          SPK-ID: 2011338
Ephemeris | Orbit Diagram | Orbital Elements | Mission Design | Physical Parameters | Discovery Circumstances | Close-Approach Data ]

[ show orbit diagram ]
Orbital Elements at Epoch 2459000.5 (2020-May-31.0) TDB
Reference: JPL 22 (heliocentric ecliptic J2000)
 Element Value Uncertainty (1-sigma)   Units 
e .1860741524592721 3.3549e-08  
a 2.31320172331051 8.6486e-09 au
q 1.882774673178179 7.8268e-08 au
i 4.874520487189709 3.7911e-06 deg
node 89.12534596081123 4.5405e-05 deg
peri 215.6857239567858 4.6559e-05 deg
M 337.1589864446173 1.1963e-05 deg
tp 2459082.032650052309
(2020-Aug-20.53265005)
4.2949e-05 TDB
period 1285.046039995642
3.52
7.2068e-06
1.973e-08
d
yr
n .2801456047451971 1.5711e-09 deg/d
Q 2.743628773442841 1.0258e-08 au
  Orbit Determination Parameters
   # obs. used (total)      1488  
   data-arc span      9772 days (26.75 yr)  
   first obs. used      1992-08-05  
   last obs. used      2019-05-08  
   planetary ephem.      DE431  
   SB-pert. ephem.      SB431-N16  
   condition code      0  
   norm. resid. RMS      .53754  
   source      ORB  
   producer      Otto Matic  
   solution date      2019-May-30 01:54:45  

Additional Information
 Earth MOID = .87008 au 
 Jupiter MOID = 2.49219 au 
 T_jup = 3.555 
[ show covariance matrix ]

Ephemeris | Orbit Diagram | Orbital Elements | Mission Design | Physical Parameters | Discovery Circumstances | Close-Approach Data ]

Physical Parameter Table
Parameter Symbol Value Units Sigma Reference Notes
absolute magnitude H 14.8   n/a MPO365386  
diameter diameter 6.204 km 0.111 urn:nasa:pds:neowise_diameters_albedos::2.0[mainbelt] (http://adsabs.harvard.edu/abs/2012ApJ...759L...8M)  
geometric albedo albedo 0.060   0.009 urn:nasa:pds:neowise_diameters_albedos::2.0[mainbelt] (http://adsabs.harvard.edu/abs/2012ApJ...759L...8M)  

11338 Schiele           Discovered 1996 Oct. 13 by J. Ticha and M. Tichy at Klet.
Egon Schiele (1890-1918), Austrian expressionist painter noted for the eroticism of his figurative works, lived and worked in Český Krumlov from 1907 to 1917.
NOTE: some special characters may not display properly (any characters within {} are an attempt to place the proper accent above a character)
Reference: 20000726/MPCPages.arcLast Updated: 2013-03-29

[ show close-approach data ]
Alternate Designations
 1996 TL9 = 1992 PS3 
Ephemeris | Orbit Diagram | Orbital Elements | Mission Design | Physical Parameters | Discovery Circumstances | Close-Approach Data ]
ABOUT SSD CREDITS/AWARDS PRIVACY/COPYRIGHT GLOSSARY LINKS
FirstGov 2020-Feb-19 23:39 UT
(server date/time)  
NASA Home Page
Site Manager:   Ryan S. Park
Webmaster  Alan B. Chamberlin